Santa Ana, CA

8:16 PM PDT on June 22, 2018 (GMT -0700)
John Wayne-Orange County

Weather History for KSNA - October, 2017

Change the Weather History Date:

Sunday, October 8, 2017

  Actual Average Record
Temperature  
Mean Temperature 69 °F 68 °F  
Max Temperature 77 °F 76 °F 93 °F (1999)
Min Temperature 61 °F 60 °F 52 °F (2011)
Degree Days  
Heating Degree Days 0 0  
Month to date heating degree days 0 0  
Since 1 July heating degree days 0 1  
Cooling Degree Days 4 3  
Month to date cooling degree days 45 31  
Year to date cooling degree days 1066 799  
Growing Degree Days 18 (Base 50)    
Moisture  
Dew Point 59 °F    
Average Humidity 77    
Maximum Humidity 93    
Minimum Humidity 60    
Precipitation  
Precipitation 0.00 in 0.02 in 0.03 in (1974)
Month to date precipitation 0.00 0.08  
Year to date precipitation 9.69 9.33  
Sea Level Pressure  
Sea Level Pressure 29.74 in    
Wind  
Wind Speed 8 mph (SSE)    
Max Wind Speed 20 mph    
Max Gust Speed 24 mph    
Visibility 9 miles    
Events      
T = Trace of Precipitation, MM = Missing Value Source: NWS Daily Summary

Daily Weather History Graph

Daily Weather History Graph

Search for Another Location

Airport or City:

Astronomy

Oct. 08, 2017 Rise Set
Actual Time 6:51 AM PDT 6:26 PM PDT
Civil Twilight 6:26 AM PDT 6:50 PM PDT
Nautical Twilight 5:57 AM PDT 7:19 PM PDT
Astronomical Twilight 5:28 AM PDT 7:48 PM PDT
Moon 8:58 PM PDT (10/8) 9:52 AM PDT (10/8)
Length of Visible Light 12h 24m
Length of Day
11h 34m
Waning Gibbous, 88% of the Moon is Illuminated
Oct 8
Waning Gibbous
Oct 12
Last Quarter
Oct 19
New
Oct 27
First Quarter
Nov 3
Full

Hourly Weather History & Observations

Time (PDT) Temp. Dew Point Humidity Pressure Visibility Wind Dir Wind Speed Gust Speed Precip Events Conditions
12:53 AM 66.0 °F 55.9 °F 70% 29.74 in 10.0 mi Calm Calm - N/A   Clear
1:53 AM 64.9 °F 55.9 °F 73% 29.73 in 10.0 mi Calm Calm - N/A   Clear
2:21 AM 64.9 °F 57.0 °F 75% 29.74 in 10.0 mi Calm Calm - N/A   Partly Cloudy
2:40 AM 64.9 °F 57.9 °F 78% 29.74 in 10.0 mi Calm Calm - N/A   Mostly Cloudy
2:53 AM 64.0 °F 57.0 °F 78% 29.73 in 10.0 mi NNE 3.5 mph - N/A   Overcast
3:49 AM 62.6 °F 55.4 °F 77% 29.72 in 10.0 mi Calm Calm - N/A   Scattered Clouds
3:53 AM 64.0 °F 55.0 °F 73% 29.72 in 10.0 mi Calm Calm - N/A   Partly Cloudy
4:53 AM 62.1 °F 57.0 °F 84% 29.73 in 10.0 mi Calm Calm - N/A   Clear
5:53 AM 62.1 °F 59.0 °F 90% 29.74 in 6.0 mi ENE 4.6 mph - N/A   Mostly Cloudy
6:19 AM 61.0 °F 59.0 °F 93% 29.74 in 6.0 mi SE 4.6 mph - N/A   Scattered Clouds
6:28 AM 62.1 °F 59.0 °F 90% 29.74 in 6.0 mi East 3.5 mph - N/A   Mostly Cloudy
6:53 AM 63.0 °F 60.1 °F 90% 29.74 in 6.0 mi East 4.6 mph - N/A   Mostly Cloudy
7:50 AM 64.4 °F 60.8 °F 88% 29.75 in 10.0 mi East 4.6 mph - N/A   Scattered Clouds
7:53 AM 64.9 °F 60.1 °F 84% 29.75 in 10.0 mi ENE 5.8 mph - N/A   Scattered Clouds
8:53 AM 68.0 °F 60.1 °F 76% 29.76 in 10.0 mi East 4.6 mph - N/A   Scattered Clouds
9:53 AM 70.0 °F 60.1 °F 71% 29.78 in 10.0 mi South 6.9 mph - N/A   Partly Cloudy
10:53 AM 73.9 °F 60.1 °F 62% 29.76 in 9.0 mi SSW 10.4 mph - N/A   Partly Cloudy
11:53 AM 73.0 °F 60.1 °F 64% 29.77 in 10.0 mi South 13.8 mph - N/A   Partly Cloudy
12:53 PM 75.0 °F 60.1 °F 60% 29.75 in 10.0 mi SSW 13.8 mph - N/A   Partly Cloudy
1:53 PM 75.0 °F 60.1 °F 60% 29.72 in 10.0 mi SSW 16.1 mph - N/A   Partly Cloudy
2:53 PM 73.0 °F 60.1 °F 64% 29.71 in 10.0 mi South 15.0 mph - N/A   Partly Cloudy
3:53 PM 72.0 °F 60.1 °F 66% 29.71 in 10.0 mi SSW 13.8 mph 20.7 mph N/A   Partly Cloudy
4:53 PM 69.1 °F 59.0 °F 70% 29.73 in 10.0 mi SSW 12.7 mph - N/A   Partly Cloudy
5:53 PM 68.0 °F 59.0 °F 73% 29.73 in 10.0 mi South 11.5 mph - N/A   Partly Cloudy
6:53 PM 66.9 °F 59.0 °F 76% 29.73 in 10.0 mi SSE 9.2 mph - N/A   Partly Cloudy
7:53 PM 66.0 °F 59.0 °F 78% 29.73 in 7.0 mi SSE 6.9 mph - N/A   Scattered Clouds
8:48 PM 64.4 °F 57.2 °F 77% 29.75 in 7.0 mi SSE 6.9 mph - N/A   Mostly Cloudy
8:53 PM 64.9 °F 57.9 °F 78% 29.75 in 7.0 mi SSE 5.8 mph - N/A   Mostly Cloudy
9:53 PM 66.9 °F 57.9 °F 73% 29.76 in 7.0 mi SE 6.9 mph - N/A   Mostly Cloudy
10:53 PM 66.9 °F 57.9 °F 73% 29.78 in 7.0 mi SE 6.9 mph - N/A   Overcast
11:53 PM 66.9 °F 57.0 °F 70% 29.79 in 10.0 mi SE 8.1 mph - N/A   Overcast